Previsão horária em Santiago del Estero

Hoje, 23 Junho, Quarta-feira

Tempo Temperatura Precipitação Vento Pressão Humidade
00:00 +14°C° 0 mm 4 m/s 741 mmHg 71%
01:00 +13°C° 0 mm 3 m/s 741 mmHg 77%
02:00 +12°C° 0 mm 3 m/s 740 mmHg 83%
03:00 +12°C° 0 mm 3 m/s 740 mmHg 85%
04:00 +13°C° 0 mm 2 m/s 740 mmHg 88%
05:00 +12°C° 0 mm 2 m/s 739 mmHg 91%
06:00 +13°C° 0 mm 2 m/s 739 mmHg 91%
07:00 +13°C° 0 mm 2 m/s 739 mmHg 91%
08:00 +13°C° 0 mm 2 m/s 740 mmHg 91%
09:00 +14°C° 0 mm 3 m/s 739 mmHg 81%
10:00 +17°C° 0 mm 3 m/s 739 mmHg 71%
11:00 +19°C° 0 mm 4 m/s 739 mmHg 62%
12:00 +20°C° 0 mm 4 m/s 738 mmHg 59%
13:00 +21°C° 0 mm 3 m/s 737 mmHg 57%
14:00 +23°C° 0 mm 2 m/s 736 mmHg 55%
15:00 +21°C° 0 mm 3 m/s 736 mmHg 59%
16:00 +20°C° 0 mm 4 m/s 737 mmHg 63%
17:00 +19°C° 0 mm 5 m/s 737 mmHg 68%
18:00 +18°C° 0 mm 4 m/s 737 mmHg 75%
19:00 +17°C° 0 mm 4 m/s 738 mmHg 82%
20:00 +14°C° 0 mm 3 m/s 739 mmHg 90%
21:00 +14°C° 0 mm 3 m/s 739 mmHg 91%
22:00 +14°C° 0 mm 3 m/s 739 mmHg 92%
23:00 +13°C° 0 mm 3 m/s 739 mmHg 93%

Amanhã, 24 Junho, Quinta-feira

Tempo Temperatura Precipitação Vento Pressão Humidade
00:00 +13°C° 0 mm 4 m/s 739 mmHg 90%
01:00 +13°C° 0 mm 4 m/s 740 mmHg 87%
02:00 +13°C° 0 mm 4 m/s 740 mmHg 84%
03:00 +13°C° 0 mm 4 m/s 741 mmHg 85%
04:00 +12°C° 0 mm 4 m/s 741 mmHg 85%
05:00 +12°C° 0 mm 4 m/s 742 mmHg 86%
06:00 +12°C° 0 mm 4 m/s 743 mmHg 79%
07:00 +13°C° 0 mm 5 m/s 744 mmHg 73%
08:00 +13°C° 0 mm 5 m/s 744 mmHg 66%
09:00 +15°C° 0 mm 5 m/s 745 mmHg 60%
10:00 +18°C° 0 mm 4 m/s 746 mmHg 53%
11:00 +20°C° 0 mm 4 m/s 746 mmHg 46%
12:00 +21°C° 0 mm 3 m/s 746 mmHg 44%
13:00 +22°C° 0 mm 3 m/s 745 mmHg 42%
14:00 +23°C° 0 mm 2 m/s 744 mmHg 40%
15:00 +23°C° 0 mm 2 m/s 744 mmHg 42%
16:00 +21°C° 0 mm 2 m/s 744 mmHg 45%
17:00 +21°C° 0 mm 1 m/s 743 mmHg 47%
18:00 +20°C° 0 mm 1 m/s 743 mmHg 51%
19:00 +17°C° 0 mm 2 m/s 744 mmHg 55%
20:00 +16°C° 0 mm 2 m/s 744 mmHg 60%
21:00 +15°C° 0 mm 2 m/s 744 mmHg 62%
22:00 +15°C° 0 mm 2 m/s 744 mmHg 64%
23:00 +13°C° 0 mm 3 m/s 744 mmHg 66%

Depois de amanhã, 25 Junho, Sexta-feira

Tempo Temperatura Precipitação Vento Pressão Humidade
00:00 +14°C° 0 mm 2 m/s 744 mmHg 71%
01:00 +13°C° 0 mm 2 m/s 744 mmHg 75%
02:00 +12°C° 0 mm 2 m/s 744 mmHg 80%
03:00 +12°C° 0 mm 2 m/s 744 mmHg 83%
04:00 +12°C° 0 mm 2 m/s 743 mmHg 87%
05:00 +10°C° 0 mm 2 m/s 743 mmHg 90%
06:00 +10°C° 0 mm 2 m/s 744 mmHg 90%
07:00 +12°C° 0 mm 2 m/s 744 mmHg 89%
08:00 +12°C° 0 mm 2 m/s 744 mmHg 89%
09:00 +13°C° 0 mm 3 m/s 744 mmHg 78%
10:00 +17°C° 0 mm 3 m/s 744 mmHg 67%
11:00 +19°C° 0 mm 4 m/s 744 mmHg 56%
12:00 +20°C° 0 mm 4 m/s 743 mmHg 51%
13:00 +21°C° 0 mm 4 m/s 742 mmHg 46%
14:00 +24°C° 0 mm 3 m/s 741 mmHg 41%
15:00 +22°C° 0 mm 3 m/s 741 mmHg 42%
16:00 +21°C° 0 mm 2 m/s 741 mmHg 44%
17:00 +21°C° 0 mm 1 m/s 741 mmHg 46%
18:00 +19°C° 0 mm 2 m/s 741 mmHg 49%
19:00 +18°C° 0 mm 2 m/s 742 mmHg 51%
20:00 +17°C° 0 mm 2 m/s 743 mmHg 54%
21:00 +16°C° 0 mm 2 m/s 743 mmHg 58%
22:00 +15°C° 0 mm 2 m/s 744 mmHg 63%
23:00 +15°C° 0 mm 2 m/s 744 mmHg 67%

26 Junho, Sábado

Tempo Temperatura Precipitação Vento Pressão Humidade
00:00 +15°C° 0 mm 2 m/s 744 mmHg 68%
01:00 +15°C° 0 mm 2 m/s 745 mmHg 68%
02:00 +15°C° 0 mm 2 m/s 745 mmHg 68%
03:00 +14°C° 0 mm 3 m/s 745 mmHg 68%
04:00 +14°C° 0 mm 3 m/s 746 mmHg 68%
05:00 +14°C° 0 mm 3 m/s 746 mmHg 68%
06:00 +14°C° 0 mm 3 m/s 747 mmHg 68%
07:00 +14°C° 0 mm 4 m/s 748 mmHg 67%
08:00 +14°C° 0 mm 4 m/s 749 mmHg 67%
09:00 +14°C° 0 mm 4 m/s 750 mmHg 65%
10:00 +14°C° 0 mm 4 m/s 750 mmHg 62%
11:00 +15°C° 0 mm 5 m/s 751 mmHg 60%
12:00 +15°C° 0 mm 5 m/s 750 mmHg 57%
13:00 +15°C° 0 mm 5 m/s 750 mmHg 54%
14:00 +16°C° 0 mm 5 m/s 750 mmHg 51%
15:00 +15°C° 0 mm 5 m/s 750 mmHg 51%
16:00 +15°C° 0 mm 5 m/s 751 mmHg 50%
17:00 +15°C° 0 mm 5 m/s 751 mmHg 50%
18:00 +15°C° 0 mm 5 m/s 752 mmHg 52%
19:00 +14°C° 0 mm 5 m/s 752 mmHg 54%
20:00 +14°C° 0 mm 5 m/s 753 mmHg 56%
21:00 +13°C° 0 mm 4 m/s 754 mmHg 56%
22:00 +13°C° 0 mm 4 m/s 754 mmHg 57%
23:00 +13°C° 0 mm 3 m/s 754 mmHg 57%

27 Junho, Domingo

Tempo Temperatura Precipitação Vento Pressão Humidade
00:00 +12°C° 0 mm 3 m/s 755 mmHg 56%
01:00 +12°C° 0 mm 3 m/s 755 mmHg 55%
02:00 +12°C° 0 mm 3 m/s 755 mmHg 55%
03:00 +12°C° 0 mm 3 m/s 755 mmHg 51%
04:00 +12°C° 0 mm 3 m/s 755 mmHg 48%
05:00 +11°C° 0 mm 3 m/s 755 mmHg 44%
06:00 +11°C° 0 mm 3 m/s 755 mmHg 42%
07:00 +10°C° 0 mm 3 m/s 756 mmHg 39%
08:00 +10°C° 0 mm 3 m/s 757 mmHg 36%
09:00 +11°C° 0 mm 3 m/s 757 mmHg 34%
10:00 +12°C° 0 mm 3 m/s 757 mmHg 31%
11:00 +12°C° 0 mm 3 m/s 757 mmHg 29%
12:00 +13°C° 0 mm 3 m/s 757 mmHg 28%
13:00 +14°C° 0 mm 3 m/s 756 mmHg 27%
14:00 +16°C° 0 mm 2 m/s 755 mmHg 25%
15:00 +15°C° 0 mm 2 m/s 755 mmHg 27%
16:00 +15°C° 0 mm 2 m/s 755 mmHg 29%
17:00 +14°C° 0 mm 2 m/s 755 mmHg 30%
18:00 +13°C° 0 mm 2 m/s 755 mmHg 32%
19:00 +12°C° 0 mm 2 m/s 756 mmHg 35%
20:00 +9°C° 0 mm 2 m/s 756 mmHg 37%
21:00 +9°C° 0 mm 1 m/s 756 mmHg 38%
22:00 +9°C° 0 mm 1 m/s 756 mmHg 40%
23:00 +8°C° 0 mm 1 m/s 757 mmHg 41%

28 Junho, Segunda-feira

Tempo Temperatura Precipitação Vento Pressão Humidade
00:00 +7°C° 0 mm 1 m/s 756 mmHg 42%
01:00 +7°C° 0 mm 1 m/s 756 mmHg 43%
02:00 +5°C° 0 mm 2 m/s 756 mmHg 44%
03:00 +5°C° 0 mm 2 m/s 756 mmHg 46%
04:00 +4°C° 0 mm 2 m/s 756 mmHg 48%
05:00 +4°C° 0 mm 2 m/s 755 mmHg 50%
06:00 +4°C° 0 mm 2 m/s 756 mmHg 50%
07:00 +5°C° 0 mm 2 m/s 756 mmHg 50%
08:00 +5°C° 0 mm 2 m/s 756 mmHg 50%
09:00 +7°C° 0 mm 2 m/s 756 mmHg 44%
10:00 +9°C° 0 mm 2 m/s 756 mmHg 38%
11:00 +13°C° 0 mm 2 m/s 756 mmHg 31%
12:00 +14°C° 0 mm 2 m/s 755 mmHg 28%
13:00 +15°C° 0 mm 2 m/s 754 mmHg 25%
14:00 +16°C° 0 mm 2 m/s 753 mmHg 23%
15:00 +15°C° 0 mm 2 m/s 753 mmHg 23%
16:00 +15°C° 0 mm 2 m/s 752 mmHg 24%
17:00 +14°C° 0 mm 2 m/s 752 mmHg 25%
18:00 +13°C° 0 mm 2 m/s 752 mmHg 27%
19:00 +10°C° 0 mm 2 m/s 752 mmHg 30%
20:00 +9°C° 0 mm 2 m/s 753 mmHg 33%
21:00 +8°C° 0 mm 2 m/s 753 mmHg 37%
22:00 +7°C° 0 mm 2 m/s 753 mmHg 42%
23:00 +7°C° 0 mm 2 m/s 753 mmHg 46%
Mostrar mais

Necessitamos do seu Consentimento

A Meteoprog e os seus Fornecedores de Serviços podem armazenar e aceder a dados pessoais como cookies, identificadores do dispositivo ou outras tecnologias semelhantes existentes no seu dispositivo e processar estes dados para personalizar conteúdos e anúncios, assim como funcionalidades nas redes sociais e análise de tráfego.

  • Armazenar e/ou aceder a informações no seu dispositivo

    Os cookies, identificadores do dispositivo ou outras informações podem ser armazenados ou acedidos no seu dispositivo, para os fins acima indicados.

  • Anúncios e conteúdos personalizados, medição de anúncios e conteúdos, dados sobre o público-alvo e desenvolvimento de produtos

    Os anúncios e os conteúdos podem ser personalizados com base num perfil. Podem ser adicionados dados adicionais para uma maior personalização dos anúncios e dos conteúdos. A eficácia dos anúncios e dos conteúdos pode ser medida. Podem ser obtidas informações sobre o público que visualizou os anúncios e os conteúdos. Estes dados podem ser usados para desenvolver ou melhorar sistemas, softwares ou a experiência do utilizador.

Ao clicar em "Eu concordo”, permitirá o uso de cookies, identificadores do dispositivo e web beacons mencionados ou outras tecnologias semelhantes. As configurações do navegador do seu dispositivo podem ser alteradas.

Para certos fins, podem ser invocados interesses legítimos ao invés de consentimento. Pode ler mais informação sobre este assunto na nossa Política de Privacidade e Cookies.